Location: ???????
(55.4362°N, 38.1183°E)
Time: 00:52:16
(UTC+00:00)

METEOR M2 - Pass Details

Date: 28 November 2021
Orbit: 818 x 827 km, 98.4° (Epoch: 28 January)

Event Time Altitude Azimuth Distance (km) Brightness Sun altitude
Rises 16:18:51 0° 181° (S) 3,357 ? -26.4°
Reaches altitude 10° 16:21:17 10° 187° (S) 2,428 ? -26.7°
Maximum altitude 16:26:28 48° 261° (W) 1,081 ? -27.5°
Drops below altitude 10° 16:31:42 10° 336° (NNW) 2,441 ? -28.2°
Sets 16:34:09 0° 342° (NNW) 3,378 ? -28.6°
